Tracking 17632 objects as of 1-May-2016
HD Live streaming from Space Station
objects crossing your sky now

COSMOS 2416

Track COSMOS 2416 now!
10-day predictions
COSMOS 2416 is classified as:


NORAD ID: 28908
Int'l Code: 2005-048A
Perigee: 1,442.4 km
Apogee: 1,455.3 km
Inclination: 82.5 °
Period: 114.7 minutes
Semi major axis: 7819 km
RCS: 1.597 m2 (large)
Launch date: December 21, 2005
Source: Commonwealth of Independent States (former USSR) (CIS)
Launch site: PLESETSK MISSILE AND SPACE COMPLEX (PKMTR)
Your satellite tracking list
Your tracking list is empty





NASA's NSSDC Master Catalog

Two Line Element Set (TLE):
1 28908U 05048A   16122.51436289  .00000023  00000-0  78160-4 0  9995
2 28908  82.4666 152.5346 0008203 137.5005  16.4520 12.55467699474761
Source of the keplerian elements: AFSPC

N2YO: 455